,,,PA_Meas_PMT16A,,PR_Meas_QMR101_102,,RH_Meas_QMH101,,SR_Meas_QMS101,,TA_Meas_QMH101,,GenWind,,GenWind,
date,time,status,PA,status,PR,status,RH,status,SR,status,TA,status,DirAvg,status,SpdAvg,
2009-10-15, 00:00:04,VALID,1012.32,VALID,0,VALID,98.7611,VALID,0,VALID,22.1355,VALID,308,VALID,0.559766,
2009-10-15, 00:01:04,VALID,1012.3,VALID,0,VALID,98.7535,VALID,0,VALID,22.1372,VALID,305,VALID,0.703516,
2009-10-15, 00:02:04,VALID,1012.29,VALID,0,VALID,98.7459,VALID,0,VALID,22.1355,VALID,308,VALID,0.505859,
2009-10-15, 00:03:04,VALID,1012.32,VALID,0,VALID,98.723,VALID,0,VALID,22.155,VALID,263,VALID,0.252344,
2009-10-15, 00:04:04,VALID,1012.33,VALID,0,VALID,98.7459,VALID,0,VALID,22.1762,VALID,272,VALID,0.00585938,
2009-10-15, 00:05:04,VALID,1012.29,VALID,0,VALID,98.7535,VALID,0,VALID,22.155,VALID,283,VALID,0.221875,
2009-10-15, 00:06:04,VALID,1012.34,VALID,0,VALID,98.7688,VALID,0,VALID,22.1355,VALID,283,VALID,0.116016,
2009-10-15, 00:07:04,VALID,1012.29,VALID,0,VALID,98.7764,VALID,0,VALID,22.1355,VALID,292,VALID,0.462109,
2009-10-15, 00:08:04,VALID,1012.3,VALID,0,VALID,98.7535,VALID,0,VALID,22.1355,VALID,322,VALID,0.405469,
2009-10-15, 00:09:04,VALID,1012.28,VALID,0,VALID,98.7535,VALID,0,VALID,22.155,VALID,322,VALID,0.0125,
2009-10-15, 00:10:04,VALID,1012.28,VALID,0,VALID,98.7688,VALID,0,VALID,22.155,VALID,299,VALID,0.626953,
2009-10-15, 00:11:04,VALID,1012.27,VALID,0,VALID,98.7916,VALID,0,VALID,22.155,VALID,298,VALID,0.569141,
2009-10-15, 00:12:04,VALID,1012.28,VALID,0,VALID,98.7535,VALID,0,VALID,22.1745,VALID,284,VALID,0.254687,
2009-10-15, 00:13:04,VALID,1012.27,VALID,0,VALID,98.7764,VALID,0,VALID,22.194,VALID,307,VALID,0.703906,
2009-10-15, 00:14:04,VALID,1012.24,VALID,0,VALID,98.7535,VALID,0,VALID,22.2134,VALID,291,VALID,0.417578,
2009-10-15, 00:15:04,VALID,1012.23,VALID,0,VALID,98.7688,VALID,0,VALID,22.2134,VALID,306,VALID,0.536328,
2009-10-15, 00:16:04,VALID,1012.24,VALID,0,VALID,98.7688,VALID,0,VALID,22.2329,VALID,305,VALID,0.6625,
2009-10-15, 00:17:04,VALID,1012.27,VALID,0,VALID,98.7535,VALID,0,VALID,22.2736,VALID,309,VALID,0.46875,
2009-10-15, 00:18:04,VALID,1012.29,VALID,0,VALID,98.7306,VALID,0,VALID,22.2719,VALID,279,VALID,0.645703,
2009-10-15, 00:19:04,VALID,1012.32,VALID,0,VALID,98.7306,VALID,0,VALID,22.2914,VALID,274,VALID,0.392969,
2009-10-15, 00:20:04,VALID,1012.32,VALID,0,VALID,98.7459,VALID,0,VALID,22.2914,VALID,280,VALID,0.322656,
2009-10-15, 00:21:04,VALID,1012.33,VALID,0,VALID,98.7383,VALID,0,VALID,22.3515,VALID,289,VALID,0.0800781,
2009-10-15, 00:22:04,VALID,1012.35,VALID,0,VALID,98.7535,VALID,0,VALID,22.3498,VALID,289,VALID,0,
2009-10-15, 00:23:04,VALID,1012.36,VALID,0,VALID,98.7764,VALID,0,VALID,22.3303,VALID,277,VALID,0.225391,
2009-10-15, 00:24:04,VALID,1012.35,VALID,0,VALID,98.7993,VALID,0,VALID,22.3286,VALID,231,VALID,0.936719,
2009-10-15, 00:25:04,VALID,1012.31,VALID,0,VALID,98.7611,VALID,0.105969,VALID,22.3498,VALID,229,VALID,0.609375,
2009-10-15, 00:26:04,VALID,1012.32,VALID,0,VALID,98.7306,VALID,0.105969,VALID,22.3481,VALID,231,VALID,0.319531,
2009-10-15, 00:27:04,VALID,1012.31,VALID,0,VALID,98.723,VALID,0.105969,VALID,22.3481,VALID,185,VALID,0.695313,
2009-10-15, 00:28:04,VALID,1012.27,VALID,0,VALID,98.7154,VALID,0.105969,VALID,22.3286,VALID,170,VALID,1.00586,
2009-10-15, 00:29:04,VALID,1012.29,VALID,0,VALID,98.7078,VALID,0,VALID,22.3481,VALID,174,VALID,1.02461,
2009-10-15, 00:30:04,VALID,1012.31,VALID,0,VALID,98.6925,VALID,0,VALID,22.3286,VALID,170,VALID,1.23711,
2009-10-15, 00:31:04,VALID,1012.3,VALID,0,VALID,98.6849,VALID,0.105969,VALID,22.3693,VALID,169,VALID,0.830469,
2009-10-15, 00:32:04,VALID,1012.31,VALID,0,VALID,98.6696,VALID,0,VALID,22.3286,VALID,167,VALID,0.680469,
2009-10-15, 00:33:04,VALID,1012.3,VALID,0,VALID,98.7001,VALID,0,VALID,22.3498,VALID,173,VALID,0.404687,
2009-10-15, 00:34:04,VALID,1012.31,VALID,0,VALID,98.7078,VALID,0,VALID,22.3091,VALID,178,VALID,0.372656,
2009-10-15, 00:35:04,VALID,1012.28,VALID,0,VALID,98.6925,VALID,0,VALID,22.3693,VALID,178,VALID,0,
2009-10-15, 00:36:04,VALID,1012.27,VALID,0,VALID,98.7154,VALID,0,VALID,22.3481,VALID,178,VALID,0.422656,
2009-10-15, 00:37:04,VALID,1012.25,VALID,0,VALID,98.723,VALID,0,VALID,22.3676,VALID,178,VALID,0.0492188,
2009-10-15, 00:38:04,VALID,1012.24,VALID,0,VALID,98.723,VALID,0,VALID,22.3676,VALID,209,VALID,0.600391,
2009-10-15, 00:39:04,VALID,1012.22,VALID,0,VALID,98.6925,VALID,0,VALID,22.4082,VALID,209,VALID,0.346875,
2009-10-15, 00:40:04,VALID,1012.22,VALID,0,VALID,98.723,VALID,0,VALID,22.4277,VALID,209,VALID,0,
2009-10-15, 00:41:04,VALID,1012.17,VALID,0,VALID,98.7154,VALID,0,VALID,22.4277,VALID,209,VALID,0.268359,
2009-10-15, 00:42:04,VALID,1012.14,VALID,0,VALID,98.7154,VALID,0,VALID,22.4277,VALID,209,VALID,0.104297,
2009-10-15, 00:43:04,VALID,1012.13,VALID,0,VALID,98.7306,VALID,0,VALID,22.4489,VALID,210,VALID,0.000390625,
2009-10-15, 00:44:04,VALID,1012.09,VALID,0,VALID,98.7001,VALID,0,VALID,22.4489,VALID,253,VALID,0.858984,
2009-10-15, 00:45:04,VALID,1012.06,VALID,0,VALID,98.6696,VALID,0,VALID,22.4861,VALID,269,VALID,0.367578,
2009-10-15, 00:46:04,VALID,1012.04,VALID,0,VALID,98.6086,VALID,0,VALID,22.5446,VALID,269,VALID,0.0820313,
2009-10-15, 00:47:04,VALID,1012,VALID,0,VALID,98.5781,VALID,0,VALID,22.5446,VALID,242,VALID,0.103516,
2009-10-15, 00:48:04,VALID,1012.01,VALID,0,VALID,98.5629,VALID,0,VALID,22.564,VALID,242,VALID,0,
2009-10-15, 00:49:04,VALID,1012,VALID,0,VALID,98.54,VALID,0,VALID,22.5835,VALID,243,VALID,0,
2009-10-15, 00:50:04,VALID,1011.99,VALID,0,VALID,98.5171,VALID,0,VALID,22.5835,VALID,243,VALID,0,
2009-10-15, 00:51:04,VALID,1011.98,VALID,0,VALID,98.4866,VALID,0,VALID,22.5835,VALID,225,VALID,0,
2009-10-15, 00:52:04,VALID,1011.97,VALID,0,VALID,98.4942,VALID,0,VALID,22.5835,VALID,188,VALID,0.596484,
2009-10-15, 00:53:04,VALID,1011.96,VALID,0,VALID,98.5095,VALID,0,VALID,22.5835,VALID,185,VALID,0.475391,
2009-10-15, 00:54:04,VALID,1011.95,VALID,0,VALID,98.5019,VALID,0,VALID,22.5446,VALID,185,VALID,0.353125,
2009-10-15, 00:55:04,VALID,1011.94,VALID,0,VALID,98.5552,VALID,0,VALID,22.5446,VALID,184,VALID,0.278516,
2009-10-15, 00:56:04,VALID,1011.95,VALID,0,VALID,98.5934,VALID,0,VALID,22.5446,VALID,184,VALID,0.128516,
2009-10-15, 00:57:04,VALID,1011.96,VALID,0,VALID,98.6239,VALID,0,VALID,22.5446,VALID,184,VALID,0,
2009-10-15, 00:58:04,VALID,1011.93,VALID,0,VALID,98.6467,VALID,0,VALID,22.5251,VALID,184,VALID,0,
2009-10-15, 00:59:04,VALID,1011.91,VALID,0,VALID,98.662,VALID,0,VALID,22.5251,VALID,184,VALID,0,
2009-10-15, 01:00:04,VALID,1011.91,VALID,0,VALID,98.6849,VALID,0,VALID,22.5039,VALID,184,VALID,0,
2009-10-15, 01:01:04,VALID,1011.89,VALID,0,VALID,98.7078,VALID,0,VALID,22.5463,VALID,182,VALID,0,
2009-10-15, 01:02:04,VALID,1011.9,VALID,0,VALID,98.7459,VALID,0,VALID,22.5446,VALID,180,VALID,0,
2009-10-15, 01:03:04,VALID,1011.91,VALID,0,VALID,98.7383,VALID,0,VALID,22.5658,VALID,180,VALID,0,
2009-10-15, 01:04:04,VALID,1011.91,VALID,0,VALID,98.7611,VALID,0,VALID,22.5658,VALID,180,VALID,0,
2009-10-15, 01:05:04,VALID,1011.86,VALID,0,VALID,98.7611,VALID,0,VALID,22.5446,VALID,180,VALID,0,
2009-10-15, 01:06:04,VALID,1011.83,VALID,0,VALID,98.8145,VALID,0,VALID,22.5446,VALID,180,VALID,0,
2009-10-15, 01:07:04,VALID,1011.81,VALID,0,VALID,98.8069,VALID,0,VALID,22.5446,VALID,180,VALID,0,
2009-10-15, 01:08:04,VALID,1011.78,VALID,0,VALID,98.8221,VALID,0,VALID,22.5446,VALID,180,VALID,0,
2009-10-15, 01:09:04,VALID,1011.77,VALID,0,VALID,98.8374,VALID,0,VALID,22.5852,VALID,180,VALID,0,
2009-10-15, 01:10:04,VALID,1011.74,VALID,0,VALID,98.8221,VALID,0,VALID,22.5446,VALID,180,VALID,0,
2009-10-15, 01:11:04,VALID,1011.73,VALID,0,VALID,98.8298,VALID,0,VALID,22.5852,VALID,169,VALID,0,
2009-10-15, 01:12:04,VALID,1011.72,VALID,0,VALID,98.8298,VALID,0,VALID,22.564,VALID,166,VALID,0,
2009-10-15, 01:13:04,VALID,1011.7,VALID,0,VALID,98.845,VALID,0,VALID,22.5852,VALID,166,VALID,0,
2009-10-15, 01:14:04,VALID,1011.66,VALID,0,VALID,98.8374,VALID,0,VALID,22.6242,VALID,160,VALID,0,
2009-10-15, 01:15:04,VALID,1011.66,VALID,0,VALID,98.8374,VALID,0,VALID,22.603,VALID,147,VALID,0,
2009-10-15, 01:16:04,VALID,1011.62,VALID,0,VALID,98.8298,VALID,0,VALID,22.642,VALID,132,VALID,0,
2009-10-15, 01:17:04,VALID,1011.6,VALID,0,VALID,98.8374,VALID,0,VALID,22.6614,VALID,131,VALID,0,
2009-10-15, 01:18:04,VALID,1011.57,VALID,0,VALID,98.845,VALID,0,VALID,22.642,VALID,131,VALID,0,
2009-10-15, 01:19:04,VALID,1011.57,VALID,0,VALID,98.8603,VALID,0,VALID,22.6826,VALID,161,VALID,0.658203,
2009-10-15, 01:20:04,VALID,1011.55,VALID,0,VALID,98.8298,VALID,0,VALID,22.6809,VALID,131,VALID,0.471875,
2009-10-15, 01:21:04,VALID,1011.53,VALID,0,VALID,98.8526,VALID,0,VALID,22.6614,VALID,131,VALID,0.555859,
2009-10-15, 01:22:04,VALID,1011.49,VALID,0,VALID,98.845,VALID,0,VALID,22.6809,VALID,166,VALID,0.530469,
2009-10-15, 01:23:04,VALID,1011.46,VALID,0,VALID,98.8526,VALID,0,VALID,22.6809,VALID,170,VALID,0.286719,
2009-10-15, 01:24:04,VALID,1011.43,VALID,0,VALID,98.8374,VALID,0,VALID,22.7021,VALID,170,VALID,0.0730469,
2009-10-15, 01:25:04,VALID,1011.4,VALID,0,VALID,98.845,VALID,0,VALID,22.6809,VALID,170,VALID,0.183203,
2009-10-15, 01:26:04,VALID,1011.37,VALID,0,VALID,98.8755,VALID,0,VALID,22.6809,VALID,170,VALID,0,
2009-10-15, 01:27:04,VALID,1011.35,VALID,0,VALID,98.8603,VALID,0,VALID,22.7004,VALID,170,VALID,0.0015625,
2009-10-15, 01:28:04,VALID,1011.34,VALID,0,VALID,98.8679,VALID,0,VALID,22.6809,VALID,170,VALID,0,
2009-10-15, 01:29:04,VALID,1011.36,VALID,0,VALID,98.8603,VALID,0,VALID,22.7216,VALID,170,VALID,0.162109,
2009-10-15, 01:30:04,VALID,1011.32,VALID,0,VALID,98.8908,VALID,0,VALID,22.7394,VALID,170,VALID,0,
2009-10-15, 01:31:04,VALID,1011.33,VALID,0,VALID,98.8908,VALID,0,VALID,22.7199,VALID,170,VALID,0,
2009-10-15, 01:32:04,VALID,1011.34,VALID,0,VALID,98.9137,VALID,0,VALID,22.7394,VALID,170,VALID,0.417188,
2009-10-15, 01:33:04,VALID,1011.36,VALID,0,VALID,98.9137,VALID,0,VALID,22.7199,VALID,168,VALID,0.516016,
2009-10-15, 01:34:04,VALID,1011.35,VALID,0,VALID,98.9289,VALID,0,VALID,22.7394,VALID,166,VALID,0.651953,
2009-10-15, 01:35:04,VALID,1011.35,VALID,0,VALID,98.906,VALID,0,VALID,22.7199,VALID,157,VALID,0.573047,
2009-10-15, 01:36:04,VALID,1011.35,VALID,0,VALID,98.9289,VALID,0,VALID,22.7606,VALID,156,VALID,0.389062,
2009-10-15, 01:37:04,VALID,1011.36,VALID,0,VALID,98.9213,VALID,0,VALID,22.7394,VALID,154,VALID,0.528906,
2009-10-15, 01:38:04,VALID,1011.33,VALID,0,VALID,98.906,VALID,0,VALID,22.7588,VALID,154,VALID,0.283984,
2009-10-15, 01:39:04,VALID,1011.34,VALID,0,VALID,98.9137,VALID,0,VALID,22.7588,VALID,154,VALID,0.235547,
2009-10-15, 01:40:04,VALID,1011.3,VALID,0,VALID,98.9137,VALID,0,VALID,22.7783,VALID,152,VALID,0.38125,
2009-10-15, 01:41:04,VALID,1011.3,VALID,0,VALID,98.906,VALID,0,VALID,22.7588,VALID,151,VALID,0.439063,
2009-10-15, 01:42:04,VALID,1011.27,VALID,0,VALID,98.9213,VALID,0,VALID,22.7783,VALID,142,VALID,0.414844,
2009-10-15, 01:43:04,VALID,1011.27,VALID,0,VALID,98.9289,VALID,0,VALID,22.8173,VALID,132,VALID,0.611719,
2009-10-15, 01:44:04,VALID,1011.25,VALID,0,VALID,98.9518,VALID,0,VALID,22.8173,VALID,127,VALID,0.456641,
2009-10-15, 01:45:04,VALID,1011.25,VALID,0,VALID,98.9365,VALID,0,VALID,22.8173,VALID,127,VALID,0.510938,
2009-10-15, 01:46:04,VALID,1011.22,VALID,0,VALID,98.967,VALID,0,VALID,22.8368,VALID,127,VALID,0.437891,
2009-10-15, 01:47:04,VALID,1011.25,VALID,0,VALID,98.9594,VALID,0,VALID,22.8173,VALID,127,VALID,0.444141,
2009-10-15, 01:48:04,VALID,1011.21,VALID,0,VALID,98.9594,VALID,0,VALID,22.8368,VALID,127,VALID,0.307031,
2009-10-15, 01:49:04,VALID,1011.22,VALID,0,VALID,98.9365,VALID,0,VALID,22.8173,VALID,127,VALID,0.436328,
2009-10-15, 01:50:04,VALID,1011.21,VALID,0,VALID,98.9518,VALID,0,VALID,22.8368,VALID,127,VALID,0.596875,
2009-10-15, 01:51:04,VALID,1011.22,VALID,0,VALID,98.9823,VALID,0,VALID,22.8173,VALID,129,VALID,0.551172,
2009-10-15, 01:52:04,VALID,1011.2,VALID,0,VALID,98.9365,VALID,0,VALID,22.8173,VALID,131,VALID,0.413281,
2009-10-15, 01:53:04,VALID,1011.2,VALID,0,VALID,98.967,VALID,0,VALID,22.8385,VALID,131,VALID,0.2,
2009-10-15, 01:54:04,VALID,1011.19,VALID,0,VALID,98.967,VALID,0,VALID,22.835,VALID,131,VALID,0.351953,
2009-10-15, 01:55:04,VALID,1011.17,VALID,0,VALID,98.9747,VALID,0,VALID,22.835,VALID,131,VALID,0.334766,
2009-10-15, 01:56:04,VALID,1011.16,VALID,0,VALID,98.9747,VALID,0.105969,VALID,22.835,VALID,121,VALID,0.407813,
2009-10-15, 01:57:04,VALID,1011.14,VALID,0,VALID,98.967,VALID,0.105969,VALID,22.835,VALID,114,VALID,0.751172,
2009-10-15, 01:58:04,VALID,1011.16,VALID,0,VALID,98.9747,VALID,0.105969,VALID,22.8545,VALID,114,VALID,0.394922,
2009-10-15, 01:59:04,VALID,1011.14,VALID,0,VALID,98.9594,VALID,0.105969,VALID,22.874,VALID,114,VALID,0.3125,
2009-10-15, 02:00:04,VALID,1011.13,VALID,0,VALID,98.9975,VALID,0.105969,VALID,22.8562,VALID,114,VALID,0.633984,
2009-10-15, 02:01:04,VALID,1011.15,VALID,0,VALID,98.9747,VALID,0.105969,VALID,22.8545,VALID,114,VALID,0.622656,
2009-10-15, 02:02:04,VALID,1011.13,VALID,0,VALID,98.9518,VALID,0,VALID,22.8757,VALID,114,VALID,0.430859,
2009-10-15, 02:03:04,VALID,1011.14,VALID,0,VALID,98.967,VALID,0.105969,VALID,22.874,VALID,114,VALID,0.040625,
2009-10-15, 02:04:04,VALID,1011.13,VALID,0,VALID,99.0052,VALID,0.105969,VALID,22.8952,VALID,114,VALID,0.861719,
2009-10-15, 02:05:04,VALID,1011.14,VALID,0,VALID,98.967,VALID,0.105969,VALID,22.874,VALID,113,VALID,0.709766,
2009-10-15, 02:06:04,VALID,1011.14,VALID,0,VALID,98.9899,VALID,0.105969,VALID,22.8545,VALID,109,VALID,1.00937,
2009-10-15, 02:07:04,VALID,1011.11,VALID,0,VALID,98.9594,VALID,0.105969,VALID,22.8545,VALID,118,VALID,0.693359,
2009-10-15, 02:08:04,VALID,1011.11,VALID,0,VALID,98.9518,VALID,0.105969,VALID,22.874,VALID,111,VALID,0.736719,
2009-10-15, 02:09:04,VALID,1011.12,VALID,0,VALID,98.9442,VALID,0,VALID,22.8775,VALID,114,VALID,0.863281,
2009-10-15, 02:10:04,VALID,1011.11,VALID,0,VALID,98.9518,VALID,0,VALID,22.8969,VALID,115,VALID,0.552734,
2009-10-15, 02:11:04,VALID,1011.11,VALID,0,VALID,98.9594,VALID,0,VALID,22.8562,VALID,99,VALID,0.776563,
2009-10-15, 02:12:04,VALID,1011.12,VALID,0,VALID,98.9442,VALID,0,VALID,22.8757,VALID,111,VALID,0.623438,
2009-10-15, 02:13:04,VALID,1011.13,VALID,0,VALID,98.9442,VALID,0,VALID,22.8969,VALID,114,VALID,0.398828,
2009-10-15, 02:14:04,VALID,1011.12,VALID,0,VALID,98.9594,VALID,0,VALID,22.8775,VALID,124,VALID,0.658203,
2009-10-15, 02:15:04,VALID,1011.1,VALID,0,VALID,98.9442,VALID,0,VALID,22.8775,VALID,118,VALID,0.600391,
2009-10-15, 02:16:04,VALID,1011.11,VALID,0,VALID,98.9442,VALID,0,VALID,22.8969,VALID,113,VALID,0.570703,
2009-10-15, 02:17:04,VALID,1011.08,VALID,0,VALID,98.9365,VALID,0,VALID,22.8562,VALID,107,VALID,0.476953,
2009-10-15, 02:18:04,VALID,1011.09,VALID,0,VALID,98.9365,VALID,0,VALID,22.8562,VALID,106,VALID,0.313672,
2009-10-15, 02:19:04,VALID,1011.08,VALID,0,VALID,98.9442,VALID,0,VALID,22.8969,VALID,106,VALID,0,
2009-10-15, 02:20:04,VALID,1011.08,VALID,0,VALID,98.9365,VALID,0,VALID,22.8562,VALID,106,VALID,0.135547,
2009-10-15, 02:21:04,VALID,1011.06,VALID,0,VALID,98.9289,VALID,0,VALID,22.8562,VALID,106,VALID,0.257031,
2009-10-15, 02:22:04,VALID,1011.05,VALID,0,VALID,98.9442,VALID,0,VALID,22.8562,VALID,106,VALID,0,
2009-10-15, 02:23:04,VALID,1011.03,VALID,0,VALID,98.967,VALID,0,VALID,22.8562,VALID,106,VALID,0,
2009-10-15, 02:24:04,VALID,1011.02,VALID,0,VALID,98.9747,VALID,0,VALID,22.8562,VALID,106,VALID,0,
2009-10-15, 02:25:04,VALID,1011.01,VALID,0,VALID,98.9823,VALID,0,VALID,22.858,VALID,106,VALID,0,
2009-10-15, 02:26:04,VALID,1011.05,VALID,0,VALID,98.967,VALID,0,VALID,22.858,VALID,106,VALID,0.173047,
2009-10-15, 02:27:04,VALID,1011.03,VALID,0,VALID,98.9594,VALID,0,VALID,22.8969,VALID,97,VALID,0.323828,
2009-10-15, 02:28:04,VALID,1011.05,VALID,0,VALID,98.9823,VALID,0,VALID,22.8775,VALID,330,VALID,0.490234,
2009-10-15, 02:29:04,VALID,1011.06,VALID,0,VALID,98.9594,VALID,0,VALID,22.858,VALID,322,VALID,0.404687,
2009-10-15, 02:30:04,VALID,1011.06,VALID,0,VALID,98.9899,VALID,0,VALID,22.8385,VALID,315,VALID,0.19375,
2009-10-15, 02:31:04,VALID,1011.05,VALID,0,VALID,98.9747,VALID,0,VALID,22.7978,VALID,315,VALID,0,
2009-10-15, 02:32:04,VALID,1011.05,VALID,0,VALID,98.9823,VALID,0,VALID,22.8173,VALID,315,VALID,0,
2009-10-15, 02:33:04,VALID,1011.07,VALID,0,VALID,98.9747,VALID,0,VALID,22.7978,VALID,315,VALID,0,
2009-10-15, 02:34:04,VALID,1011.06,VALID,0,VALID,98.9975,VALID,0,VALID,22.7978,VALID,315,VALID,0,
2009-10-15, 02:35:04,VALID,1011.07,VALID,0,VALID,98.9823,VALID,0,VALID,22.7995,VALID,315,VALID,0,
2009-10-15, 02:36:04,VALID,1011.05,VALID,0,VALID,98.9899,VALID,0,VALID,22.7995,VALID,315,VALID,0,
2009-10-15, 02:37:04,VALID,1011.06,VALID,0,VALID,98.9823,VALID,0,VALID,22.7995,VALID,315,VALID,0,
2009-10-15, 02:38:04,VALID,1011.08,VALID,0,VALID,98.9823,VALID,0,VALID,22.7995,VALID,315,VALID,0,
2009-10-15, 02:39:04,VALID,1011.1,VALID,0,VALID,98.9823,VALID,0,VALID,22.7978,VALID,315,VALID,0,
2009-10-15, 02:40:04,VALID,1011.07,VALID,0,VALID,98.9823,VALID,0,VALID,22.7783,VALID,315,VALID,0,
2009-10-15, 02:41:04,VALID,1011.06,VALID,0,VALID,98.9899,VALID,0,VALID,22.7978,VALID,315,VALID,0,
2009-10-15, 02:42:04,VALID,1011.06,VALID,0,VALID,98.9899,VALID,0,VALID,22.7978,VALID,315,VALID,0,
2009-10-15, 02:43:04,VALID,1011.04,VALID,0,VALID,99.0052,VALID,0,VALID,22.7978,VALID,315,VALID,0,
2009-10-15, 02:44:04,VALID,1011.03,VALID,0,VALID,98.9823,VALID,0,VALID,22.7783,VALID,315,VALID,0,
2009-10-15, 02:45:04,VALID,1011.02,VALID,0,VALID,98.9975,VALID,0,VALID,22.7783,VALID,315,VALID,0,
2009-10-15, 02:46:04,VALID,1011,VALID,0,VALID,98.9975,VALID,0,VALID,22.7978,VALID,315,VALID,0,
2009-10-15, 02:47:04,VALID,1011.03,VALID,0,VALID,99.0204,VALID,0,VALID,22.7588,VALID,315,VALID,0,
2009-10-15, 02:48:04,VALID,1011.01,VALID,0,VALID,99.0128,VALID,0,VALID,22.7588,VALID,315,VALID,0,
2009-10-15, 02:49:04,VALID,1011.01,VALID,0,VALID,99.0052,VALID,0,VALID,22.7394,VALID,17,VALID,0,
2009-10-15, 02:50:04,VALID,1011.04,VALID,0,VALID,98.9975,VALID,0,VALID,22.7606,VALID,45,VALID,0,
2009-10-15, 02:51:04,VALID,1011.05,VALID,0,VALID,99.0204,VALID,0,VALID,22.7199,VALID,45,VALID,0,
2009-10-15, 02:52:04,VALID,1011.06,VALID,0,VALID,99.0128,VALID,0,VALID,22.7199,VALID,53,VALID,0.627344,
2009-10-15, 02:53:04,VALID,1011.06,VALID,0,VALID,98.9899,VALID,0,VALID,22.7004,VALID,53,VALID,0.545313,
2009-10-15, 02:54:04,VALID,1011.06,VALID,0,VALID,99.0052,VALID,0,VALID,22.7004,VALID,53,VALID,0.489844,
2009-10-15, 02:55:04,VALID,1011.05,VALID,0,VALID,98.9899,VALID,0,VALID,22.7199,VALID,53,VALID,0.315234,
2009-10-15, 02:56:04,VALID,1011.05,VALID,0,VALID,98.9975,VALID,0,VALID,22.7004,VALID,53,VALID,0,
2009-10-15, 02:57:04,VALID,1011.04,VALID,0,VALID,98.9975,VALID,0,VALID,22.7004,VALID,56,VALID,0,
2009-10-15, 02:58:04,VALID,1011.07,VALID,0,VALID,98.9899,VALID,0,VALID,22.7199,VALID,56,VALID,0,
2009-10-15, 02:59:04,VALID,1011.03,VALID,0,VALID,98.9975,VALID,0,VALID,22.7199,VALID,56,VALID,0,
2009-10-15, 03:00:04,VALID,1011.07,VALID,0,VALID,98.9975,VALID,0,VALID,22.7199,VALID,56,VALID,0,
2009-10-15, 03:01:04,VALID,1011.07,VALID,0,VALID,99.0128,VALID,0,VALID,22.7199,VALID,56,VALID,0,
2009-10-15, 03:02:04,VALID,1011.07,VALID,0,VALID,99.0052,VALID,0,VALID,22.7411,VALID,56,VALID,0,
2009-10-15, 03:03:04,VALID,1011.1,VALID,0,VALID,99.0128,VALID,0,VALID,22.7199,VALID,56,VALID,0,
2009-10-15, 03:04:04,VALID,1011.11,VALID,0,VALID,99.0052,VALID,0,VALID,22.7004,VALID,33,VALID,0,
2009-10-15, 03:05:04,VALID,1011.14,VALID,0,VALID,99.0204,VALID,0,VALID,22.6809,VALID,17,VALID,0,
2009-10-15, 03:06:04,VALID,1011.14,VALID,0,VALID,99.0204,VALID,0,VALID,22.7216,VALID,16,VALID,0,
2009-10-15, 03:07:04,VALID,1011.15,VALID,0,VALID,99.0052,VALID,0,VALID,22.7216,VALID,7,VALID,0,
2009-10-15, 03:08:04,VALID,1011.16,VALID,0,VALID,99.0052,VALID,0,VALID,22.7004,VALID,7,VALID,0,
2009-10-15, 03:09:04,VALID,1011.17,VALID,0,VALID,99.0357,VALID,0,VALID,22.7004,VALID,7,VALID,0,
2009-10-15, 03:10:04,VALID,1011.19,VALID,0,VALID,99.0128,VALID,0,VALID,22.7004,VALID,7,VALID,0,
2009-10-15, 03:11:04,VALID,1011.18,VALID,0,VALID,99.028,VALID,0,VALID,22.6809,VALID,7,VALID,0,
2009-10-15, 03:12:04,VALID,1011.2,VALID,0,VALID,98.9899,VALID,0,VALID,22.6809,VALID,7,VALID,0,
2009-10-15, 03:13:04,VALID,1011.22,VALID,0,VALID,99.0052,VALID,0,VALID,22.6809,VALID,22,VALID,0,
2009-10-15, 03:14:04,VALID,1011.24,VALID,0,VALID,98.9975,VALID,0,VALID,22.7021,VALID,44,VALID,0,
2009-10-15, 03:15:04,VALID,1011.25,VALID,0,VALID,99.0204,VALID,0,VALID,22.6614,VALID,58,VALID,0.682031,
2009-10-15, 03:16:04,VALID,1011.28,VALID,0,VALID,99.0128,VALID,0,VALID,22.6809,VALID,79,VALID,0.818359,
2009-10-15, 03:17:04,VALID,1011.27,VALID,0,VALID,99.0357,VALID,0,VALID,22.6614,VALID,66,VALID,0.928906,
2009-10-15, 03:18:04,VALID,1011.28,VALID,0,VALID,99.0052,VALID,0,VALID,22.6614,VALID,73,VALID,0.784375,
2009-10-15, 03:19:04,VALID,1011.29,VALID,0,VALID,99.028,VALID,0,VALID,22.6809,VALID,69,VALID,0.48125,
2009-10-15, 03:20:04,VALID,1011.27,VALID,0,VALID,99.0052,VALID,0,VALID,22.6809,VALID,69,VALID,0.5125,
2009-10-15, 03:21:04,VALID,1011.26,VALID,0,VALID,99.0052,VALID,0,VALID,22.6597,VALID,69,VALID,0.361328,
2009-10-15, 03:22:04,VALID,1011.28,VALID,0,VALID,99.0052,VALID,0,VALID,22.6809,VALID,69,VALID,0.478906,
2009-10-15, 03:23:04,VALID,1011.29,VALID,0,VALID,99.0204,VALID,0,VALID,22.6809,VALID,76,VALID,0.652344,
2009-10-15, 03:24:04,VALID,1011.32,VALID,0,VALID,99.0052,VALID,0,VALID,22.6809,VALID,88,VALID,1.00898,
2009-10-15, 03:25:04,VALID,1011.35,VALID,0,VALID,99.0204,VALID,0,VALID,22.6809,VALID,102,VALID,1.21758,
2009-10-15, 03:26:04,VALID,1011.36,VALID,0,VALID,99.0433,VALID,0,VALID,22.6809,VALID,97,VALID,1.0293,
2009-10-15, 03:27:04,VALID,1011.37,VALID,0,VALID,99.0433,VALID,0,VALID,22.6614,VALID,91,VALID,1.03828,
2009-10-15, 03:28:04,VALID,1011.41,VALID,0,VALID,99.0509,VALID,0,VALID,22.6614,VALID,89,VALID,1.25156,
2009-10-15, 03:29:04,VALID,1011.4,VALID,0,VALID,99.0662,VALID,0,VALID,22.6614,VALID,96,VALID,1.19687,
2009-10-15, 03:30:04,VALID,1011.41,VALID,0,VALID,99.0433,VALID,0,VALID,22.6614,VALID,88,VALID,1.02773,
2009-10-15, 03:31:04,VALID,1011.41,VALID,0,VALID,99.0814,VALID,0,VALID,22.6225,VALID,94,VALID,1.14688,
2009-10-15, 03:32:04,VALID,1011.42,VALID,0,VALID,99.0509,VALID,0,VALID,22.642,VALID,91,VALID,0.689062,
2009-10-15, 03:33:04,VALID,1011.43,VALID,0,VALID,99.0662,VALID,0,VALID,22.603,VALID,96,VALID,1.14727,
2009-10-15, 03:34:04,VALID,1011.46,VALID,0,VALID,99.0814,VALID,0,VALID,22.5835,VALID,90,VALID,0.955078,
2009-10-15, 03:35:04,VALID,1011.47,VALID,0,VALID,99.0814,VALID,0,VALID,22.564,VALID,104,VALID,1.22695,
2009-10-15, 03:36:04,VALID,1011.49,VALID,0,VALID,99.0967,VALID,0,VALID,22.5658,VALID,93,VALID,1.06758,
2009-10-15, 03:37:04,VALID,1011.54,VALID,0,VALID,99.089,VALID,0,VALID,22.5251,VALID,80,VALID,1.38281,
2009-10-15, 03:38:04,VALID,1011.54,VALID,0,VALID,99.0967,VALID,0,VALID,22.5251,VALID,91,VALID,1.11641,
2009-10-15, 03:39:04,VALID,1011.57,VALID,0,VALID,99.1119,VALID,0,VALID,22.4861,VALID,79,VALID,1.65234,
2009-10-15, 03:40:04,VALID,1011.6,VALID,0,VALID,99.0967,VALID,0,VALID,22.5268,VALID,78,VALID,1.14531,
2009-10-15, 03:41:04,VALID,1011.58,VALID,0,VALID,99.0738,VALID,0,VALID,22.5056,VALID,94,VALID,1.08281,
2009-10-15, 03:42:04,VALID,1011.6,VALID,0,VALID,99.0967,VALID,0,VALID,22.4667,VALID,84,VALID,1.33555,
2009-10-15, 03:43:04,VALID,1011.62,VALID,0,VALID,99.089,VALID,0,VALID,22.4684,VALID,82,VALID,1.17031,
2009-10-15, 03:44:04,VALID,1011.65,VALID,0,VALID,99.1195,VALID,0,VALID,22.4082,VALID,81,VALID,1.46367,
2009-10-15, 03:45:04,VALID,1011.65,VALID,0,VALID,99.1348,VALID,0,VALID,22.4082,VALID,77,VALID,1.47383,
2009-10-15, 03:46:04,VALID,1011.66,VALID,0,VALID,99.1348,VALID,0,VALID,22.3887,VALID,94,VALID,1.31211,
2009-10-15, 03:47:04,VALID,1011.67,VALID,0,VALID,99.1195,VALID,0,VALID,22.3904,VALID,94,VALID,1.38945,
2009-10-15, 03:48:04,VALID,1011.67,VALID,0,VALID,99.1119,VALID,0,VALID,22.3693,VALID,89,VALID,1.05586,
2009-10-15, 03:49:04,VALID,1011.7,VALID,0,VALID,99.15,VALID,0,VALID,22.332,VALID,89,VALID,1.72578,